Time,TemperatureF,DewpointF,PressureIn,WindDirection,WindDirectionDegrees,WindSpeedMPH,WindSpeedGustMPH,Humidity,HourlyPrecipIn,Conditions,Clouds,dailyrainin,SoftwareType,DateUTC
2015-03-04 00:02:00,34.2,33.4,29.71,SW,219,10.5,14.3,97,0.00,,---,0.00,VWS V15.00,2015-03-04 05:02:00,
2015-03-04 00:07:00,34.3,33.6,29.71,SSW,211,11.2,16.8,97,0.00,,---,0.00,VWS V15.00,2015-03-04 05:07:00,
2015-03-04 00:12:00,34.7,33.9,29.71,SW,215,13.0,15.2,97,0.00,,---,0.00,VWS V15.00,2015-03-04 05:12:00,
2015-03-04 00:17:00,34.9,34.1,29.71,SSW,192,12.1,15.4,97,0.00,,---,0.00,VWS V15.00,2015-03-04 05:17:00,
2015-03-04 00:22:00,35.1,34.3,29.71,SSW,210,15.9,21.9,97,0.00,,---,0.00,VWS V15.00,2015-03-04 05:22:00,
2015-03-04 00:27:00,35.1,34.3,29.71,SW,223,13.0,15.2,97,0.00,,---,0.00,VWS V15.00,2015-03-04 05:27:00,
2015-03-04 00:32:00,35.1,34.3,29.71,South,186,14.3,14.3,97,0.00,,---,0.00,VWS V15.00,2015-03-04 05:32:00,
2015-03-04 00:37:00,35.2,34.5,29.71,South,181,12.5,14.8,97,0.00,,---,0.00,VWS V15.00,2015-03-04 05:37:00,
2015-03-04 00:42:00,35.2,34.5,29.71,SW,233,12.5,13.4,97,0.00,,---,0.00,VWS V15.00,2015-03-04 05:42:00,
2015-03-04 00:47:00,35.4,34.7,29.68,SSW,210,13.0,16.8,97,0.00,,---,0.00,VWS V15.00,2015-03-04 05:47:00,
2015-03-04 00:52:00,35.6,34.8,29.68,SSW,200,11.0,14.8,97,0.00,,---,0.00,VWS V15.00,2015-03-04 05:52:00,
2015-03-04 00:57:00,35.8,35.0,29.68,SSW,213,11.6,12.5,97,0.00,,---,0.00,VWS V15.00,2015-03-04 05:57:00,
2015-03-04 01:02:00,35.8,35.0,29.68,SSW,192,13.9,22.4,97,0.00,,---,0.00,VWS V15.00,2015-03-04 06:02:00,
2015-03-04 01:07:00,36.1,35.4,29.68,SSW,198,13.9,13.9,97,0.00,,---,0.00,VWS V15.00,2015-03-04 06:07:00,
2015-03-04 01:12:00,36.3,35.5,29.68,South,188,13.4,13.9,97,0.00,,---,0.00,VWS V15.00,2015-03-04 06:12:00,
2015-03-04 01:17:00,36.5,35.7,29.65,SSW,209,9.6,13.9,97,0.00,,---,0.00,VWS V15.00,2015-03-04 06:17:00,
2015-03-04 01:22:00,36.7,35.9,29.65,SSW,196,15.4,15.4,97,0.00,,---,0.00,VWS V15.00,2015-03-04 06:22:00,
2015-03-04 01:27:00,36.7,35.9,29.65,SSW,208,14.8,19.5,97,0.00,,---,0.00,VWS V15.00,2015-03-04 06:27:00,
2015-03-04 01:32:00,36.9,36.1,29.65,SSW,198,12.1,12.1,97,0.00,,---,0.00,VWS V15.00,2015-03-04 06:32:00,
2015-03-04 01:37:00,36.7,35.9,29.65,SSW,199,12.5,12.5,97,0.00,,---,0.00,VWS V15.00,2015-03-04 06:37:00,
2015-03-04 01:42:00,36.7,35.9,29.65,South,190,15.4,15.4,97,0.00,,---,0.00,VWS V15.00,2015-03-04 06:42:00,
2015-03-04 01:47:00,36.7,35.9,29.62,SW,225,11.2,12.5,97,0.00,,---,0.00,VWS V15.00,2015-03-04 06:47:00,
2015-03-04 01:52:00,36.7,35.9,29.62,SSW,198,10.5,17.7,97,0.00,,---,0.00,VWS V15.00,2015-03-04 06:52:00,
2015-03-04 01:57:00,36.7,35.9,29.62,SW,230,12.5,16.3,97,0.00,,---,0.00,VWS V15.00,2015-03-04 06:57:00,
2015-03-04 02:02:00,36.7,35.9,29.62,SSW,210,15.4,18.6,97,0.00,,---,0.00,VWS V15.00,2015-03-04 07:02:00,
2015-03-04 02:07:00,36.9,36.1,29.62,SSW,200,6.7,10.1,97,0.00,,---,0.00,VWS V15.00,2015-03-04 07:07:00,
2015-03-04 02:11:00,36.9,36.1,29.62,SSW,202,14.3,16.8,97,0.00,,---,0.00,VWS V15.00,2015-03-04 07:11:00,
2015-03-04 02:16:00,37.0,36.3,29.62,SSW,202,11.2,12.1,97,0.00,,---,0.00,VWS V15.00,2015-03-04 07:16:00,
2015-03-04 02:21:00,37.0,36.3,29.62,SW,234,10.5,17.7,97,0.00,,---,0.00,VWS V15.00,2015-03-04 07:21:00,
2015-03-04 02:26:00,37.4,36.6,29.62,WSW,242,11.6,14.3,97,0.00,,---,0.00,VWS V15.00,2015-03-04 07:26:00,
2015-03-04 02:31:00,37.6,36.8,29.59,WSW,244,13.9,16.3,97,0.00,,---,0.00,VWS V15.00,2015-03-04 07:31:00,
2015-03-04 02:36:00,37.8,37.0,29.59,SW,218,10.1,18.6,97,0.00,,---,0.00,VWS V15.00,2015-03-04 07:36:00,
2015-03-04 02:41:00,37.9,37.2,29.59,SSW,211,14.8,20.1,97,0.00,,---,0.00,VWS V15.00,2015-03-04 07:41:00,
2015-03-04 02:46:00,38.3,37.5,29.56,South,182,11.0,20.1,97,0.00,,---,0.00,VWS V15.00,2015-03-04 07:46:00,
2015-03-04 02:51:00,38.7,37.9,29.56,SW,215,11.2,19.0,97,0.00,,---,0.00,VWS V15.00,2015-03-04 07:51:00,
2015-03-04 02:56:00,38.7,37.9,29.56,SSW,208,15.2,15.2,97,0.00,,---,0.00,VWS V15.00,2015-03-04 07:56:00,
2015-03-04 03:01:00,39.0,38.2,29.56,SW,235,15.9,20.1,97,0.00,,---,0.00,VWS V15.00,2015-03-04 08:01:00,
2015-03-04 03:06:00,39.2,38.4,29.56,SW,230,9.6,15.4,97,0.00,,---,0.00,VWS V15.00,2015-03-04 08:06:00,
2015-03-04 03:11:00,39.2,38.4,29.56,SW,227,12.1,19.5,97,0.00,,---,0.00,VWS V15.00,2015-03-04 08:11:00,
2015-03-04 03:16:00,39.6,38.8,29.56,SW,225,12.1,17.2,97,0.00,,---,0.00,VWS V15.00,2015-03-04 08:16:00,
2015-03-04 03:21:00,39.9,39.1,29.56,SW,231,24.2,26.2,97,0.00,,---,0.00,VWS V15.00,2015-03-04 08:21:00,
2015-03-04 03:26:00,40.5,39.7,29.56,SW,235,15.4,27.1,97,0.00,,---,0.00,VWS V15.00,2015-03-04 08:26:00,
2015-03-04 03:31:00,41.0,40.2,29.53,WSW,253,25.3,25.3,97,0.00,,---,0.00,VWS V15.00,2015-03-04 08:31:00,
2015-03-04 03:36:00,41.0,40.2,29.53,WSW,251,13.4,18.6,97,0.00,,---,0.00,VWS V15.00,2015-03-04 08:36:00,
2015-03-04 03:41:00,40.8,40.0,29.53,SW,234,27.1,27.1,97,0.00,,---,0.00,VWS V15.00,2015-03-04 08:41:00,
2015-03-04 03:46:00,40.5,39.7,29.53,West,267,17.2,18.6,97,0.00,,---,0.00,VWS V15.00,2015-03-04 08:46:00,
2015-03-04 03:51:00,40.1,39.3,29.53,SW,236,13.0,18.1,97,0.00,,---,0.00,VWS V15.00,2015-03-04 08:51:00,
2015-03-04 03:56:00,39.7,39.0,29.53,SW,218,13.9,13.9,97,0.00,,---,0.00,VWS V15.00,2015-03-04 08:56:00,
2015-03-04 04:01:00,39.4,38.6,29.53,WSW,242,19.9,22.4,97,0.00,,---,0.00,VWS V15.00,2015-03-04 09:01:00,
2015-03-04 04:06:00,39.2,38.4,29.53,WSW,258,13.9,16.3,97,0.00,,---,0.00,VWS V15.00,2015-03-04 09:06:00,